WetterOnline ( https://www.wetteronline.de )

Wetter aktuell Gottfrieding

Aktuelles Wetter: Gottfrieding (350m)

6-stündlich | Neueste Meldungen
Ortszeit Temperatur Wetter
Do, 01.10. 20:00 12.9° C bewölkt
Do, 01.10. 14:00 15.9° C wolkenlos
Do, 01.10. 8:00 6.3° C Nebel
Do, 01.10. 2:00 5.3° C Nebel
Mi, 30.09. 20:00 10.2° C wolkenlos
Mi, 30.09. 14:00 15.1° C bewölkt
Mi, 30.09. 8:00 10.4° C bewölkt
Mi, 30.09. 2:00 11.3° C bedeckt
Ortszeit Temperatur Wetter
Fr, 02.10. 1:30 11.2° C bewölkt
Fr, 02.10. 1:20 11.2° C bewölkt
Fr, 02.10. 1:10 11.5° C wolkig
Fr, 02.10. 1:00 11.7° C bewölkt
Fr, 02.10. 0:50 11.7° C bewölkt
Fr, 02.10. 0:40 11.7° C bewölkt
Fr, 02.10. 0:30 11.6° C bedeckt
Fr, 02.10. 0:00 11.6° C bedeckt
Do, 01.10. 23:30 11.4° C wolkig
Do, 01.10. 23:00 11.4° C bewölkt
Do, 01.10. 22:30 11.5° C bewölkt
Ortszeit Relative Feuchte Sichtweite
Do, 01.10. 20:00 93% 30 km
Do, 01.10. 14:00 76% 19 km
Do, 01.10. 8:00 100% 100 m
Do, 01.10. 2:00 100% 0.3 km
Mi, 30.09. 20:00 99% 14 km
Mi, 30.09. 14:00 69% 45 km
Mi, 30.09. 8:00 97% 8 km
Mi, 30.09. 2:00 97% 13 km
Ortszeit Relative Feuchte Sichtweite
Fr, 02.10. 1:30 98% 15 km
Fr, 02.10. 1:20 98% -
Fr, 02.10. 1:10 97% -
Fr, 02.10. 1:00 98% 20 km
Fr, 02.10. 0:50 98% -
Fr, 02.10. 0:40 98% -
Fr, 02.10. 0:30 98% 23 km
Fr, 02.10. 0:00 98% 20 km
Do, 01.10. 23:30 98% 23 km
Do, 01.10. 23:00 97% 20 km
Do, 01.10. 22:30 97% 23 km
Ortszeit Niederschlagsmenge Niederschlagsart
Do, 01.10. 20:00 0.1 l/m2 in 12 Std. -
Do, 01.10. 14:00 0.1 l/m2 in 6 Std. -
Do, 01.10. 8:00 0.2 l/m2 in 12 Std. -
Do, 01.10. 2:00 0.0 l/m2 in 6 Std. -
Mi, 30.09. 20:00 0.0 l/m2 in 12 Std. -
Mi, 30.09. 14:00 0.0 l/m2 in 6 Std. -
Mi, 30.09. 8:00 0.1 l/m2 in 12 Std. -
Mi, 30.09. 2:00 0.1 l/m2 in 6 Std. Regen
Ortszeit Niederschlagsmenge Niederschlagsart
Fr, 02.10. 1:30 0.0 l/m2 in 1 Std. -
Fr, 02.10. 1:20 keine Meldung -
Fr, 02.10. 1:10 keine Meldung -
Fr, 02.10. 1:00 0.0 l/m2 in 1 Std. -
Fr, 02.10. 0:50 keine Meldung -
Fr, 02.10. 0:40 keine Meldung -
Fr, 02.10. 0:30 0.0 l/m2 in 1 Std. -
Fr, 02.10. 0:00 0.0 l/m2 in 1 Std. -
Do, 01.10. 23:30 0.0 l/m2 in 1 Std. -
Do, 01.10. 23:00 0.0 l/m2 in 1 Std. -
Do, 01.10. 22:30 0.0 l/m2 in 1 Std. -
Ortszeit Stärke Spitze Richtung
km/h Bft. km/h Grad Sektor
Do, 01.10. 20:00 4 1 18 260° W
Do, 01.10. 14:00 11 2 18 50° NO
Do, 01.10. 8:00 4 1 11 90° O
Do, 01.10. 2:00 4 1 7 260° W
Mi, 30.09. 20:00 2 1 13 100° O
Mi, 30.09. 14:00 4 1 11 240° SW
Mi, 30.09. 8:00 7 2 14 270° W
Mi, 30.09. 2:00 6 1 31 250° W
Ortszeit Stärke Spitze Richtung
km/h Bft. km/h Grad Sektor
Fr, 02.10. 1:30 6 1 13 300° NW
Fr, 02.10. 1:20 6 1 - 300° NW
Fr, 02.10. 1:10 4 1 - 350° N
Fr, 02.10. 1:00 4 1 7 340° N
Fr, 02.10. 0:50 4 1 - 340° N
Fr, 02.10. 0:40 2 1 - 180° S
Fr, 02.10. 0:30 4 1 7 170° S
Fr, 02.10. 0:00 4 1 4 120° SO
Do, 01.10. 23:30 4 1 4 120° SO
Do, 01.10. 23:00 0 0 7 - -
Do, 01.10. 22:30 2 1 4 290° W
Ortszeit Untergrenze Bedeckung Gattung
total tief tief mittel hoch
Do, 01.10. 20:00 5700 m 7/8 7/8 - - -
Do, 01.10. 14:00 9000 m 0/8 0/8 - - -
Do, 01.10. 8:00 <30 m 8/8 0/8 - - -
Do, 01.10. 2:00 <30 m 6/8 0/8 - - -
Mi, 30.09. 20:00 9000 m 0/8 0/8 - - -
Mi, 30.09. 14:00 750 m 8/8 7/8 - - -
Mi, 30.09. 8:00 450 m 7/8 7/8 - - -
Mi, 30.09. 2:00 270 m 8/8 8/8 - - -
Ortszeit Bedeckungsgrad in Achtel und Wolkenuntergrenze
Fr, 02.10. 1:30 3(1500m) 5(2100m) 8(3900m)
Fr, 02.10. 1:20 3(1500m) 5(2100m) 8(3900m)
Fr, 02.10. 1:10 3(2100m) 8(3900m)
Fr, 02.10. 1:00 1(1500m) 7(2100m) 8(4200m)
Fr, 02.10. 0:50 1(1500m) 7(2100m) 8(4200m)
Fr, 02.10. 0:40 2(1440m) 7(2100m) 8(3900m)
Fr, 02.10. 0:30 7(1440m) 8(1800m) 8(2100m)
Fr, 02.10. 0:00 6(1410m) 7(1500m) 8(1800m)
Do, 01.10. 23:30 2(1500m) 8(3300m) 8(4200m)
Do, 01.10. 23:00 6(1500m) 7(2100m) 8(3900m)
Do, 01.10. 22:30 7(1800m) 8(3900m) 8(5400m)
Ortszeit Luftdruck NN (hPa) Tendenz (hPa in 3 Std.)
Do, 01.10. 20:00 1005 + 0,1
Do, 01.10. 14:00 1006 - 2,1
Do, 01.10. 8:00 1011 - 0,9
Do, 01.10. 2:00 1013 - 1,4
Mi, 30.09. 20:00 1015 - 0,6
Mi, 30.09. 14:00 1016 - 1,3
Mi, 30.09. 8:00 1018 - 0,2
Mi, 30.09. 2:00 1019 - 0,3
Ortszeit Luftdruck NN (hPa) Tendenz (hPa in 3 Std.)
Fr, 02.10. 1:30 1004 - 0,9
Fr, 02.10. 1:20 1004 keine Meldung
Fr, 02.10. 1:10 1004 keine Meldung
Fr, 02.10. 1:00 1004 - 1,0
Fr, 02.10. 0:50 1004 keine Meldung
Fr, 02.10. 0:40 1005 keine Meldung
Fr, 02.10. 0:30 1005 - 0,6
Fr, 02.10. 0:00 1005 - 0,6
Do, 01.10. 23:30 1005 - 0,3
Do, 01.10. 23:00 1005 0,0
Do, 01.10. 22:30 1005 + 0,4
Ortszeit Schneehöhe (cm)
Do, 01.10. 20:00 -
Do, 01.10. 14:00 0
Do, 01.10. 8:00 -
Do, 01.10. 2:00 -
Mi, 30.09. 20:00 -
Mi, 30.09. 14:00 -
Mi, 30.09. 8:00 -
Mi, 30.09. 2:00 -
Ortszeit Schneehöhe (cm)
Fr, 02.10. 1:30 -
Fr, 02.10. 1:20 -
Fr, 02.10. 1:10 -
Fr, 02.10. 1:00 -
Fr, 02.10. 0:50 -
Fr, 02.10. 0:40 -
Fr, 02.10. 0:30 -
Fr, 02.10. 0:00 -
Do, 01.10. 23:30 -
Do, 01.10. 23:00 -
Do, 01.10. 22:30 -
Link zu dieser Seite / Seite empfehlen

Das Wetter in ...